Location: MAS Eagle Lake Observatory
(44.8103°N, 93.9397°W)
Time: 19:08:15
(UTC-05:00)

Amateur Radio Satellites - All Passes

Search period start: 18 October 2017 18:38
Search period end: 19 October 2017 18:38
Location: MAS Eagle Lake Observatory, 44.8103°N, 93.9397°W

Satellite Date Start Highest point End Downlink Frequencies (MHz)
Time Altitude Azimuth
CUTE-I 18 Oct 18:38:54 18:44:13 85° 75° (ENE) 18:49:35 437.470
CUTE 1.7 + AOD 2 18 Oct 18:42:09 18:45:39 26° 68° (ENE) 18:49:11 437.475
SEEDS 18 Oct 18:53:39 18:56:51 22° 66° (ENE) 19:00:04 437.485
HO-68 18 Oct 19:07:48 19:14:53 68° 69° (ENE) 19:22:03 435.675
YUBILEINY 18 Oct 19:18:21 19:23:23 16° 55° (NE) 19:28:25 435.215
CUBEBUG 2 18 Oct 19:20:23 19:24:45 41° 70° (ENE) 19:29:12 437.445
AAUSAT CUBESAT 2 18 Oct 19:23:55 19:26:58 20° 66° (ENE) 19:30:01 437.432
XW-2F 18 Oct 19:25:55 19:28:56 22° 266° (W) 19:31:57 145.980 - 146.000
AO-73 18 Oct 19:26:13 19:28:48 15° 61° (ENE) 19:31:23 145.935
LilacSat-2 18 Oct 19:27:00 19:29:50 20° 267° (W) 19:32:40 437.200
KAITUO 1B 18 Oct 19:27:26 19:30:36 26° 264° (W) 19:33:48 145.475/437.950
KKS-1 18 Oct 19:28:33 19:32:26 29° 293° (WNW) 19:36:18 437.445
STRAND 1 18 Oct 19:31:42 19:34:34 15° 89° (E) 19:37:25 437.568
CUBESAT XI-V 18 Oct 19:32:08 19:32:55 10° 303° (WNW) 19:33:43 437.345
PCSat 18 Oct 19:36:37 19:41:04 27° 251° (WSW) 19:45:31 145.827
XW-2D 18 Oct 19:37:27 19:39:48 16° 268° (W) 19:42:11 145.860 - 145.880
ZACube-1 18 Oct 19:45:37 19:49:22 25° 66° (ENE) 19:53:07 437.345
NUDT-PHONESAT 18 Oct 19:45:47 19:48:20 17° 267° (W) 19:50:52 437.300
XW-2B 18 Oct 19:51:57 19:53:20 12° 270° (W) 19:54:42 145.730 - 145.750
UWE-3 18 Oct 20:02:29 20:07:03 64° 74° (ENE) 20:11:43 435.000/436.395/437.385
STARS 18 Oct 20:07:06 20:10:53 28° 294° (WNW) 20:14:38 437.465
XW-2A 18 Oct 20:15:34 20:18:59 73° 258° (WSW) 20:22:24 145.665 - 145.685
CUTE 1.7 + AOD 2 18 Oct 20:17:39 20:21:24 30° 265° (W) 20:25:08 437.475
CUTE-I 18 Oct 20:22:32 20:24:57 13° 272° (W) 20:27:23 437.470
Oscar 11 18 Oct 20:25:41 20:29:40 37° 70° (ENE) 20:33:40 .
SEEDS 18 Oct 20:28:28 20:32:20 36° 263° (W) 20:36:12 437.485
BEESAT 2 18 Oct 20:53:01 20:54:38 12° 32° (NNE) 20:56:14 435.950
Max Valier Satellite 18 Oct 20:55:53 20:57:13 12° 62° (ENE) 20:58:33 145.860
HO-68 18 Oct 20:57:31 21:03:11 25° 268° (W) 21:08:54 435.675
CUBEBUG 2 18 Oct 20:57:47 21:01:30 23° 268° (W) 21:05:17 437.445
AAUSAT CUBESAT 2 18 Oct 20:58:22 21:02:10 37° 262° (W) 21:06:01 437.432
AO-73 18 Oct 20:59:56 21:04:28 68° 259° (W) 21:09:02 145.935
AO-85 18 Oct 21:07:46 21:10:14 14° 34° (NE) 21:12:47 145.980
STRAND 1 18 Oct 21:09:08 21:14:18 74° 287° (WNW) 21:19:26 437.568
DELFI C3 18 Oct 21:09:50 21:12:58 23° 67° (ENE) 21:16:05 145.870
BEESAT 3 18 Oct 21:13:12 21:16:54 35° 47° (NE) 21:20:32 437.485
YUBILEINY 18 Oct 21:13:17 21:22:05 70° 79° (ENE) 21:30:52 435.215
ZACube-1 18 Oct 21:21:12 21:25:27 37° 263° (W) 21:29:44 437.345
UWE-3 18 Oct 21:41:19 21:43:56 15° 271° (W) 21:46:35 435.000/436.395/437.385
O/OREOS (USA 219) 18 Oct 21:41:49 21:46:19 65° 111° (ESE) 21:50:53 437.305
FO-29 18 Oct 21:50:30 21:57:07 53° 100° (E) 22:04:26 435.910
Oscar 11 18 Oct 22:02:32 22:05:55 22° 267° (W) 22:09:19 .
EO-88 18 Oct 22:21:21 22:25:01 83° 76° (ENE) 22:28:41 145.990 - 145.960
UNISAT 6 18 Oct 22:26:26 22:30:23 27° 94° (E) 22:34:14 437.425
Max Valier Satellite 18 Oct 22:26:51 22:30:32 60° 259° (W) 22:34:15 145.860
BEESAT 2 18 Oct 22:29:08 22:33:11 64° 53° (NE) 22:37:09 435.950
PRISM 18 Oct 22:32:03 22:33:35 12° 90° (E) 22:35:07 437.425
TIGRISAT 18 Oct 22:41:34 22:45:49 35° 96° (E) 22:49:58 435.000
DELFI C3 18 Oct 22:44:11 22:47:35 29° 264° (W) 22:51:01 145.870
AO-85 18 Oct 22:46:52 22:51:22 71° 53° (NE) 22:56:13 145.980
STRAND 1 18 Oct 22:50:53 22:52:34 12° 305° (NW) 22:54:15 437.568
BEESAT 3 18 Oct 22:51:03 22:54:17 24° 246° (WSW) 22:57:28 437.485
YUBILEINY 18 Oct 23:11:07 23:18:06 28° 279° (W) 23:25:08 435.215
LO-87 18 Oct 23:17:00 23:20:27 48° 73° (ENE) 23:23:58 145.935 - 145.965
O/OREOS (USA 219) 18 Oct 23:23:10 23:26:12 17° 310° (NW) 23:29:16 437.305
FO-29 18 Oct 23:36:03 23:41:56 34° 296° (WNW) 23:48:23 435.910
VELOX 1 18 Oct 23:45:28 23:47:57 15° 61° (ENE) 23:50:27 145.980
ESTCUBE 1 18 Oct 23:45:39 23:50:08 75° 74° (ENE) 23:54:38 437.505/2401.250
UNISAT 6 19 Oct 00:02:56 00:07:07 34° 292° (WNW) 00:11:12 437.425
PRISM 19 Oct 00:05:10 00:09:15 64° 286° (WNW) 00:13:20 437.425
BEESAT 2 19 Oct 00:08:22 00:10:23 14° 250° (WSW) 00:12:23 435.950
QB50P2 19 Oct 00:10:41 00:13:25 17° 91° (E) 00:16:09 145.880/145.840
NANOSAT C BR1 19 Oct 00:15:59 00:18:28 15° 91° (E) 00:20:57 145.865
TIGRISAT 19 Oct 00:18:29 00:22:21 27° 294° (WNW) 00:26:10 435.000
AIST 2D 19 Oct 00:26:44 00:30:12 61° 101° (E) 00:33:37 435.315
DUCHIFAT 1 19 Oct 00:27:26 00:30:19 18° 92° (E) 00:33:10 145.980
AO-85 19 Oct 00:28:31 00:31:22 16° 249° (WSW) 00:34:19 145.980
SPROUT 19 Oct 00:48:02 00:52:19 86° 73° (ENE) 00:56:38 437.525
LO-87 19 Oct 00:52:45 00:54:09 12° 270° (W) 00:55:33 145.935 - 145.965
DX 1 19 Oct 00:56:28 00:59:41 21° 64° (ENE) 01:02:55 434.975-435.025
RS-15 19 Oct 01:07:30 01:19:07 52° 111° (ESE) 01:30:44 29.354- 29.394
VELOX 1 19 Oct 01:19:33 01:23:53 63° 259° (WSW) 01:28:16 145.980
EO-79 19 Oct 01:20:48 01:25:07 84° 105° (ESE) 01:29:21 145.935-145.965
UKube-1 19 Oct 01:23:48 01:27:18 25° 66° (ENE) 01:30:51 .
POLYITAN 1 19 Oct 01:25:02 01:29:21 88° 280° (W) 01:33:36 437.675
ESTCUBE 1 19 Oct 01:25:51 01:27:27 12° 271° (W) 01:29:04 437.505/2401.250
QB50P2 19 Oct 01:45:21 01:49:29 48° 288° (WNW) 01:53:34 145.880/145.840
NANOSAT C BR1 19 Oct 01:50:20 01:54:30 52° 287° (WNW) 01:58:35 145.865
50 SAT 19 Oct 01:57:35 02:00:49 69° 258° (WSW) 02:04:07 437.505
DUCHIFAT 1 19 Oct 02:02:08 02:06:12 44° 289° (WNW) 02:10:13 145.980
BEESAT 19 Oct 02:08:29 02:10:28 13° 57° (ENE) 02:12:27 436.000
BUGSAT 1 19 Oct 02:16:23 02:20:38 70° 101° (ESE) 02:24:49 437.445
DX 1 19 Oct 02:31:30 02:35:35 41° 261° (W) 02:39:43 434.975-435.025
Oscar 19 19 Oct 02:47:33 02:52:40 66° 102° (ESE) 02:57:45 437.125/150
EO-79 19 Oct 02:58:56 03:00:11 11° 301° (WNW) 03:01:27 145.935-145.965
UKube-1 19 Oct 02:59:19 03:03:11 33° 263° (W) 03:07:06 .
POLYITAN 1 19 Oct 03:03:58 03:04:24 10° 302° (WNW) 03:04:50 437.675
Gurwin Techsat 1B 19 Oct 03:05:42 03:11:02 67° 102° (ESE) 03:16:19 435.225
NO-84 19 Oct 03:11:37 03:13:36 13° 124° (SE) 03:15:35 435.350 FM
MOZHAYETS 4 19 Oct 03:12:36 03:17:03 48° 71° (ENE) 03:21:31
AO-7 19 Oct 03:15:01 03:19:55 17° 88° (E) 03:24:48 .
RS-15 19 Oct 03:19:26 03:31:35 59° 316° (NW) 03:43:39 29.354- 29.394
CUBESAT XI-V 19 Oct 03:21:35 03:24:14 15° 61° (ENE) 03:26:52 437.345
M-CUBED/EXP-1 PRIME 19 Oct 03:23:07 03:26:36 71° 290° (WNW) 03:30:18 437.505
ITUPSAT 1 19 Oct 03:26:08 03:30:52 61° 72° (ENE) 03:35:38 437.325
BEESAT 19 Oct 03:42:43 03:47:30 89° 66° (ENE) 03:52:20 436.000
BUGSAT 1 19 Oct 03:53:27 03:55:25 13° 300° (WNW) 03:57:22 437.445
Oscar 19 19 Oct 04:28:02 04:31:28 19° 300° (WNW) 04:34:55 437.125/150
NO-84 19 Oct 04:46:08 04:50:27 77° 139° (SE) 04:54:39 435.350 FM
Gurwin Techsat 1B 19 Oct 04:46:47 04:50:27 19° 300° (WNW) 04:54:07 435.225
MOZHAYETS 4 19 Oct 04:51:08 04:54:27 19° 268° (W) 04:57:47
KKS-1 19 Oct 04:51:34 04:55:36 35° 68° (ENE) 04:59:39 437.445
ITAMSAT 1 19 Oct 04:55:49 05:01:03 66° 102° (ESE) 05:06:14 435.822/435.867
CUBESAT XI-V 19 Oct 04:56:27 05:01:04 68° 258° (WSW) 05:05:41 437.345
AO-7 19 Oct 05:05:35 05:13:57 79° 108° (ESE) 05:22:16 .
ITUPSAT 1 19 Oct 05:06:07 05:09:05 16° 269° (W) 05:12:05 437.325
BEESAT 19 Oct 05:24:54 05:25:56 11° 272° (W) 05:26:58 436.000
STARS 19 Oct 05:28:45 05:32:44 35° 68° (ENE) 05:36:46 437.465
RS-15 19 Oct 05:36:52 05:47:23 31° 347° (NNW) 05:57:39 29.354- 29.394
O/OREOS (USA 219) 19 Oct 06:11:18 06:14:55 22° 53° (NE) 06:18:30 437.305
DOVE 4 19 Oct 06:19:30 06:24:24 63° 101° (E) 06:29:31 437.250
NO-84 19 Oct 06:24:27 06:28:13 29° 339° (NNW) 06:31:50 435.350 FM
KKS-1 19 Oct 06:28:35 06:32:12 24° 265° (W) 06:35:52 437.445
ITAMSAT 1 19 Oct 06:36:22 06:40:00 19° 300° (WNW) 06:43:37 435.822/435.867
STRAND 1 19 Oct 06:48:48 06:53:02 27° 64° (ENE) 06:57:18 437.568
CUTE-I 19 Oct 06:54:21 06:59:02 29° 95° (E) 07:03:40 437.470
XW-2F 19 Oct 06:55:16 06:58:34 29° 96° (E) 07:01:51 145.980 - 146.000
KAITUO 1B 19 Oct 06:56:15 06:59:17 24° 95° (E) 07:02:17 145.475/437.950
LilacSat-2 19 Oct 06:57:09 07:00:39 36° 97° (E) 07:04:08 437.200
AO-7 19 Oct 06:59:17 07:05:55 28° 308° (NW) 07:12:34 .
STARS 19 Oct 07:05:36 07:09:09 24° 266° (W) 07:12:43 437.465
XW-2D 19 Oct 07:06:15 07:09:52 44° 99° (E) 07:13:26 145.860 - 145.880
NUDT-PHONESAT 19 Oct 07:12:40 07:16:03 35° 98° (E) 07:19:26 437.300
XW-2B 19 Oct 07:19:34 07:23:18 63° 101° (E) 07:27:00 145.730 - 145.750
SO-50 19 Oct 07:40:54 07:45:10 46° 119° (ESE) 07:49:29 436.795
XW-2C 19 Oct 07:42:46 07:46:30 65° 284° (WNW) 07:50:11 145.795 - 145.815
O/OREOS (USA 219) 19 Oct 07:50:09 07:54:35 47° 252° (WSW) 07:58:58 437.305
UWE-3 19 Oct 07:52:35 07:54:08 12° 87° (E) 07:55:39 435.000/436.395/437.385
RS-15 19 Oct 07:53:47 08:04:36 34° 22° (NNE) 08:14:56 29.354- 29.394
DOVE 4 19 Oct 07:58:17 08:01:39 19° 297° (WNW) 08:05:06 437.250
CUTE 1.7 + AOD 2 19 Oct 07:59:58 08:03:55 38° 97° (E) 08:07:50 437.475
NO-84 19 Oct 08:03:37 08:06:37 19° 359° (N) 08:09:29 435.350 FM
FO-29 19 Oct 08:06:58 08:11:05 24° 60° (ENE) 08:15:25 435.910
SEEDS 19 Oct 08:10:02 08:13:44 30° 96° (E) 08:17:25 437.485
HO-68 19 Oct 08:20:55 08:28:04 61° 102° (ESE) 08:35:09 435.675
YUBILEINY 19 Oct 08:25:09 08:29:31 15° 73° (ENE) 08:33:54 435.215
STRAND 1 19 Oct 08:27:08 08:31:59 43° 262° (W) 08:36:54 437.568
XW-2F 19 Oct 08:29:43 08:32:31 20° 293° (WNW) 08:35:19 145.980 - 146.000
KAITUO 1B 19 Oct 08:30:09 08:33:12 24° 292° (WNW) 08:36:13 145.475/437.950
LilacSat-2 19 Oct 08:32:06 08:34:40 18° 294° (WNW) 08:37:13 437.200
CUTE-I 19 Oct 08:34:10 08:39:10 40° 292° (WNW) 08:44:08 437.470
PCSat 19 Oct 08:36:38 08:41:18 30° 110° (ESE) 08:45:58 145.827
AAUSAT CUBESAT 2 19 Oct 08:38:18 08:41:51 28° 95° (E) 08:45:24 437.432
XW-2D 19 Oct 08:41:33 08:43:40 15° 296° (WNW) 08:45:47 145.860 - 145.880
CUBEBUG 2 19 Oct 08:45:30 08:50:12 71° 102° (ESE) 08:54:43 437.445
AO-73 19 Oct 08:46:52 08:50:07 20° 92° (E) 08:53:18 145.935
NUDT-PHONESAT 19 Oct 08:47:13 08:49:39 17° 294° (WNW) 08:52:04 437.300
XW-2B 19 Oct 08:55:49 08:56:57 11° 298° (WNW) 08:58:06 145.730 - 145.750
ZACube-1 19 Oct 09:07:29 09:11:35 37° 97° (E) 09:15:34 437.345
XW-2A 19 Oct 09:07:48 09:11:10 89° 124° (ESE) 09:14:29 145.665 - 145.685
SO-50 19 Oct 09:22:01 09:25:49 27° 318° (NW) 09:29:40 436.795
PRISM 19 Oct 09:23:32 09:25:01 12° 60° (ENE) 09:26:29 437.425
UWE-3 19 Oct 09:26:36 09:31:10 75° 285° (WNW) 09:35:33 435.000/436.395/437.385
UNISAT 6 19 Oct 09:26:36 09:30:38 30° 67° (ENE) 09:34:44 437.425
CUTE 1.7 + AOD 2 19 Oct 09:36:22 09:39:30 21° 295° (WNW) 09:42:38 437.475
TIGRISAT 19 Oct 09:41:28 09:45:45 38° 69° (ENE) 09:50:07 435.000
NO-84 19 Oct 09:41:31 09:45:01 29° 21° (NNE) 09:48:17 435.350 FM
SEEDS 19 Oct 09:45:53 09:49:18 25° 293° (WNW) 09:52:41 437.485
Oscar 11 19 Oct 09:46:31 09:50:47 59° 101° (E) 09:55:01 .
FO-29 19 Oct 09:50:46 09:55:48 50° 261° (W) 10:01:14 435.910
Max Valier Satellite 19 Oct 09:57:08 09:57:55 11° 89° (E) 09:58:42 145.860
RS-15 19 Oct 10:07:18 10:19:24 77° 52° (NE) 10:30:47 29.354- 29.394
HO-68 19 Oct 10:09:16 10:15:22 31° 302° (WNW) 10:21:26 435.675
AAUSAT CUBESAT 2 19 Oct 10:13:46 10:17:14 27° 292° (WNW) 10:20:42 437.432
YUBILEINY 19 Oct 10:16:03 10:24:41 75° 94° (E) 10:33:24 435.215
DELFI C3 19 Oct 10:18:36 10:22:03 28° 96° (E) 10:25:31 145.870
PCSat 19 Oct 10:19:19 10:24:29 45° 309° (NW) 10:29:43 145.827
nSIGHT-1 19 Oct 10:21:00 10:22:54 15° 134° (SE) 10:24:48 .
AO-73 19 Oct 10:22:25 10:26:31 40° 290° (WNW) 10:30:31 145.935
CUBEBUG 2 19 Oct 10:23:36 10:26:11 15° 300° (WNW) 10:28:45 437.445
ZACube-1 19 Oct 10:44:10 10:47:38 23° 295° (WNW) 10:51:02 437.345
POLYITAN 1 19 Oct 10:47:45 10:47:59 10° 58° (ENE) 10:48:14 437.675
ISS 19 Oct 10:49:39 10:52:20 24° 138° (SE) 10:55:03 437.550
PRISM 19 Oct 10:55:40 10:59:42 72° 256° (WSW) 11:03:46 437.425
AIST 2D 19 Oct 11:02:38 11:05:40 28° 70° (ENE) 11:08:43 435.315
UNISAT 6 19 Oct 11:03:08 11:07:16 31° 264° (W) 11:11:28 437.425
QB50P2 19 Oct 11:05:08 11:07:54 17° 63° (ENE) 11:10:40 145.880/145.840
NANOSAT C BR1 19 Oct 11:09:58 11:12:29 15° 62° (ENE) 11:14:59 145.865
TIGRISAT 19 Oct 11:18:44 11:22:32 25° 267° (W) 11:26:24 435.000
NO-84 19 Oct 11:18:54 11:22:41 63° 222° (SW) 11:26:08 435.350 FM
DUCHIFAT 1 19 Oct 11:21:03 11:23:52 18° 63° (ENE) 11:26:43 145.980
EO-88 19 Oct 11:21:29 11:25:08 84° 99° (E) 11:28:45 145.990 - 145.960
Oscar 11 19 Oct 11:23:58 11:26:27 15° 298° (WNW) 11:28:55 .
Max Valier Satellite 19 Oct 11:28:29 11:32:06 56° 286° (WNW) 11:35:40 145.860
ESTCUBE 1 19 Oct 11:37:44 11:39:59 14° 90° (E) 11:42:13 437.505/2401.250
DELFI C3 19 Oct 11:53:28 11:56:42 24° 292° (WNW) 11:59:55 145.870
nSIGHT-1 19 Oct 11:55:36 11:58:48 79° 331° (NNW) 12:02:01 .
PCSat 19 Oct 12:07:15 12:09:20 12° 332° (NNW) 12:11:26 145.827
EO-79 19 Oct 12:14:23 12:18:38 78° 75° (ENE) 12:22:57 145.935-145.965
LO-87 19 Oct 12:15:02 12:18:34 46° 99° (E) 12:22:03 145.935 - 145.965
YUBILEINY 19 Oct 12:15:21 12:22:24 27° 297° (WNW) 12:29:30 435.215
POLYITAN 1 19 Oct 12:18:45 12:23:01 86° 80° (E) 12:27:21 437.675
RS-15 19 Oct 12:20:47 12:30:44 34° 256° (WSW) 12:40:18 29.354- 29.394
ISS 19 Oct 12:25:25 12:28:38 54° 336° (NNW) 12:31:51 437.550
Oscar 19 19 Oct 12:29:19 12:32:35 17° 59° (ENE) 12:35:52 437.125/150
SPROUT 19 Oct 12:33:26 12:35:24 13° 89° (E) 12:37:20 437.525
AIST 2D 19 Oct 12:36:20 12:38:52 19° 266° (W) 12:41:25 435.315
M-CUBED/EXP-1 PRIME 19 Oct 12:38:11 12:40:09 15° 60° (ENE) 12:42:06 437.505
QB50P2 19 Oct 12:39:07 12:43:17 52° 260° (W) 12:47:29 145.880/145.840
BEESAT 3 19 Oct 12:41:20 12:44:53 31° 116° (ESE) 12:48:29 437.485
NANOSAT C BR1 19 Oct 12:43:33 12:47:43 57° 259° (W) 12:51:57 145.865
Gurwin Techsat 1B 19 Oct 12:50:55 12:54:36 19° 60° (ENE) 12:58:17 435.225
DUCHIFAT 1 19 Oct 12:55:03 12:59:10 49° 260° (W) 13:03:19 145.980
AO-85 19 Oct 13:06:23 13:07:32 11° 109° (ESE) 13:08:40 145.980
BUGSAT 1 19 Oct 13:07:16 13:11:22 60° 74° (ENE) 13:15:34 437.445
VELOX 1 19 Oct 13:08:06 13:11:28 21° 93° (E) 13:14:50 145.980
ESTCUBE 1 19 Oct 13:12:46 13:17:13 64° 287° (WNW) 13:21:39 437.505/2401.250
nSIGHT-1 19 Oct 13:32:40 13:35:25 26° 350° (N) 13:38:11 .
LO-87 19 Oct 13:49:41 13:51:35 14° 296° (WNW) 13:53:28 145.935 - 145.965
EO-79 19 Oct 13:54:16 13:54:56 10° 272° (W) 13:55:35 145.935-145.965
BEESAT 2 19 Oct 13:58:46 14:02:43 62° 121° (ESE) 14:06:44 435.950
ISS 19 Oct 14:02:49 14:05:35 24° 355° (N) 14:08:20 437.550
Oscar 19 19 Oct 14:06:10 14:11:20 72° 257° (WSW) 14:16:31 437.125/150
SPROUT 19 Oct 14:07:26 14:11:42 64° 287° (WNW) 14:15:56 437.525
M-CUBED/EXP-1 PRIME 19 Oct 14:11:13 14:14:23 35° 256° (WSW) 14:17:26 437.505
AO-7 19 Oct 14:15:34 14:22:34 32° 54° (NE) 14:29:34 .
DX 1 19 Oct 14:17:40 14:21:27 28° 96° (E) 14:25:11 434.975-435.025
BEESAT 3 19 Oct 14:18:52 14:22:26 30° 315° (NW) 14:26:00 437.485
Gurwin Techsat 1B 19 Oct 14:28:45 14:34:01 66° 258° (WSW) 14:39:20 435.225
SO-50 19 Oct 14:30:40 14:33:22 15° 32° (NNE) 14:36:05 436.795
ITAMSAT 1 19 Oct 14:38:28 14:41:55 18° 59° (ENE) 14:45:23 435.822/435.867
AO-85 19 Oct 14:43:25 14:47:16 70° 307° (NW) 14:51:17 145.980
VELOX 1 19 Oct 14:43:54 14:48:04 41° 290° (WNW) 14:52:14 145.980
UKube-1 19 Oct 14:43:55 14:47:51 33° 97° (E) 14:51:45 .
BUGSAT 1 19 Oct 14:45:08 14:47:07 13° 270° (W) 14:49:08 437.445
50 SAT 19 Oct 14:46:44 14:50:03 78° 102° (ESE) 14:53:21 437.505
nSIGHT-1 19 Oct 15:09:35 15:12:21 26° 10° (N) 15:15:08 .
ITUPSAT 1 19 Oct 15:26:26 15:28:43 13° 89° (E) 15:31:01 437.325
BEESAT 2 19 Oct 15:37:55 15:40:49 19° 321° (NW) 15:43:46 435.950
ISS 19 Oct 15:39:43 15:42:42 31° 15° (NNE) 15:45:40 437.550
PCSat 19 Oct 15:40:37 15:41:57 11° 26° (NNE) 15:43:18 145.827
BEESAT 19 Oct 15:41:44 15:45:11 19° 92° (E) 15:48:37 436.000
DX 1 19 Oct 15:53:46 15:57:36 30° 293° (WNW) 16:01:25 434.975-435.025
AO-7 19 Oct 16:06:30 16:14:45 69° 255° (WSW) 16:23:03 .
SO-50 19 Oct 16:10:02 16:14:39 71° 54° (NE) 16:19:18 436.795
ITAMSAT 1 19 Oct 16:15:40 16:20:50 69° 257° (WSW) 16:26:03 435.822/435.867
UKube-1 19 Oct 16:20:11 16:23:43 25° 294° (WNW) 16:27:16 .
AO-85 19 Oct 16:26:48 16:28:29 12° 329° (NNW) 16:30:11 145.980
MOZHAYETS 4 19 Oct 16:42:27 16:47:04 88° 104° (ESE) 16:51:37
nSIGHT-1 19 Oct 16:45:46 16:48:59 81° 29° (NNE) 16:52:12 .
CUBESAT XI-V 19 Oct 16:51:23 16:55:13 25° 94° (E) 16:59:00 437.345
ITUPSAT 1 19 Oct 17:02:16 17:07:04 74° 287° (WNW) 17:11:50 437.325
HO-68 19 Oct 17:09:11 17:11:53 12° 45° (NE) 17:14:36 435.675
ISS 19 Oct 17:16:07 17:19:22 65° 214° (SW) 17:22:36 437.550
BEESAT 19 Oct 17:18:36 17:23:14 50° 290° (WNW) 17:27:50 436.000
PCSat 19 Oct 17:21:53 17:26:58 39° 49° (NE) 17:32:01 145.827
DOVE 4 19 Oct 17:27:03 17:31:12 71° 74° (ENE) 17:35:33 437.250
XW-2F 19 Oct 17:38:05 17:40:52 20° 67° (ENE) 17:43:39 145.980 - 146.000
KAITUO 1B 19 Oct 17:38:29 17:40:48 16° 65° (ENE) 17:43:07 145.475/437.950
LilacSat-2 19 Oct 17:40:50 17:43:58 24° 68° (ENE) 17:47:06 437.200
XW-2D 19 Oct 17:49:06 17:52:24 28° 69° (ENE) 17:55:42 145.860 - 145.880
SO-50 19 Oct 17:51:53 17:54:34 15° 250° (WSW) 17:57:16 436.795
NUDT-PHONESAT 19 Oct 17:53:35 17:56:30 22° 68° (ENE) 17:59:25 437.300
XW-2B 19 Oct 18:02:14 18:05:46 38° 71° (ENE) 18:09:19 145.730 - 145.750
AO-7 19 Oct 18:05:23 18:09:01 13° 274° (W) 18:12:40 .
KKS-1 19 Oct 18:16:24 18:20:49 53° 101° (E) 18:25:12 437.445
CUTE-I 19 Oct 18:17:48 18:22:59 57° 71° (ENE) 18:28:13 437.470
MOZHAYETS 4 19 Oct 18:21:48 18:23:30 12° 302° (WNW) 18:25:12
nSIGHT-1 19 Oct 18:23:00 18:24:52 15° 226° (SW) 18:26:45 .
XW-2C 19 Oct 18:25:07 18:28:55 75° 77° (ENE) 18:32:43 145.795 - 145.815
CUBESAT XI-V 19 Oct 18:28:27 18:32:38 35° 291° (WNW) 18:36:49 437.345
